Weather History for KPRG - October, 2013

Change the Weather History Date:

Saturday, October 5, 2013

  Actual Average (KHUF) Record (KHUF)
Temperature  
Mean Temperature 72 °F 58 °F  
Max Temperature 79 °F 70 °F 88 °F (1967)
Min Temperature 66 °F 46 °F 29 °F (1968)
Degree Days  
Heating Degree Days 0 8  
Month to date heating degree days 37  
Since 1 July heating degree days 115  
Cooling Degree Days 8 1  
Month to date cooling degree days 5  
Year to date cooling degree days 983  
Growing Degree Days 22 (Base 50)    
Moisture  
Dew Point 68 °F    
Average Humidity 93    
Maximum Humidity 100    
Minimum Humidity 75    
Precipitation  
Precipitation 0.17 in 0.11 in 1.53 in (1998)
Month to date precipitation 0.55  
Year to date precipitation 35.25  
Sea Level Pressure  
Sea Level Pressure 29.95 in    
Wind  
Wind Speed 6 mph (South)    
Max Wind Speed 15 mph    
Max Gust Speed 21 mph    
Visibility 8 miles    
Events Rain , Thunderstorm    
T = Trace of Precipitation, MM = Missing Value Source: NWS Daily Summary

Daily Weather History Graph

Daily Weather History Graph

Search for Another Location

Airport or City:

Trip Planner

Search our weather history database for the weather conditions in past years. The results will help you decide how hot, cold, wet, or windy it might be!

Date:

Astronomy

Oct. 05, 2013 Rise Set
Actual Time 6:51 AM CDT 6:26 PM CDT
Civil Twilight 6:24 AM CDT 6:53 PM CDT
Nautical Twilight 5:52 AM CDT 7:24 PM CDT
Astronomical Twilight 5:21 AM CDT 7:55 PM CDT
Moon 7:29 AM CDT (10/5) 6:45 PM CDT (10/5)
Length of Visible Light 12h 29m
Length of Day
11h 35m
New Moon, 1% of the Moon is Illuminated
Oct 5
New Moon
Oct 11
First Quarter
Oct 18
Full
Oct 26
Last Quarter
Nov 3
New

Hourly Weather History & Observations

Time (CDT) Temp. Dew Point Humidity Pressure Visibility Wind Dir Wind Speed Gust Speed Precip Events Conditions
12:15 AM 70.7 °F 67.6 °F 90% 30.01 in 10.0 mi SSE 3.5 mph - N/A   Scattered Clouds
12:35 AM 70.7 °F 68.2 °F 92% 30.01 in 10.0 mi SSE 4.6 mph - N/A   Scattered Clouds
12:55 AM 71.2 °F 68.4 °F 91% 30.01 in 10.0 mi SSE 5.8 mph - N/A   Mostly Cloudy
1:15 AM 71.2 °F 68.5 °F 91% 30.01 in 10.0 mi SSE 5.8 mph - N/A Thunderstorm Mostly Cloudy
1:35 AM 70.9 °F 68.5 °F 92% 30.01 in 10.0 mi SSE 4.6 mph - N/A Thunderstorm Scattered Clouds
1:55 AM 70.7 °F 68.9 °F 94% 30.01 in 10.0 mi SSE 5.8 mph - N/A   Scattered Clouds
2:15 AM 70.7 °F 68.9 °F 94% 30.01 in 10.0 mi SSE 4.6 mph - N/A   Clear
2:35 AM 70.2 °F 68.5 °F 95% 30.01 in 10.0 mi SSE 4.6 mph - N/A   Scattered Clouds
2:55 AM 69.8 °F 68.4 °F 95% 30.00 in 7.0 mi SSE 3.5 mph - N/A   Scattered Clouds
3:15 AM 69.1 °F 68.0 °F 96% 29.99 in 5.0 mi SSE 3.5 mph - N/A   Clear
3:35 AM 68.9 °F 68.0 °F 97% 29.99 in 7.0 mi Calm Calm - N/A   Clear
3:55 AM 68.2 °F 67.5 °F 98% 29.99 in 4.0 mi Calm Calm - N/A   Clear
4:15 AM 68.0 °F 67.5 °F 98% 29.99 in 4.0 mi Calm Calm - N/A   Scattered Clouds
4:35 AM 68.2 °F 67.6 °F 98% 29.99 in 4.0 mi Calm Calm - N/A   Mostly Cloudy
4:55 AM 68.2 °F 67.6 °F 98% 29.99 in 4.0 mi SE 3.5 mph - N/A   Mostly Cloudy
5:15 AM 67.5 °F 67.1 °F 99% 29.99 in 3.0 mi SSE 3.5 mph - N/A   Mostly Cloudy
5:35 AM 67.5 °F 67.1 °F 99% 30.00 in 2.5 mi SSE 3.5 mph - N/A   Scattered Clouds
5:55 AM 67.3 °F 67.1 °F 99% 30.00 in 2.5 mi SSE 3.5 mph - N/A   Mostly Cloudy
6:15 AM 68.0 °F 68.0 °F 100% 29.99 in 3.0 mi SSE 3.5 mph - N/A   Overcast
6:35 AM 68.9 °F 68.9 °F 100% 29.99 in 5.0 mi SSE 4.6 mph - N/A   Mostly Cloudy
6:55 AM 68.9 °F 68.9 °F 100% 29.98 in 3.0 mi SSE 3.5 mph - N/A   Scattered Clouds
7:15 AM 68.9 °F 68.9 °F 100% 29.97 in 3.0 mi SSE 3.5 mph - N/A   Scattered Clouds
7:35 AM 69.3 °F 69.3 °F 100% 29.98 in 3.0 mi South 5.8 mph - N/A   Mist
7:55 AM 69.8 °F 69.8 °F 100% 29.98 in 4.0 mi South 4.6 mph - N/A   Scattered Clouds
8:15 AM 70.9 °F 70.9 °F 100% 29.98 in 5.0 mi South 3.5 mph - N/A   Mostly Cloudy
8:35 AM 71.2 °F 70.7 °F 98% 29.98 in 7.0 mi South 4.6 mph - N/A   Overcast
8:55 AM 73.4 °F 72.0 °F 95% 29.98 in 7.0 mi South 8.1 mph - N/A Rain Light Rain
9:15 AM 75.4 °F 71.2 °F 87% 29.99 in 10.0 mi South 11.5 mph - N/A   Mostly Cloudy
9:35 AM 74.8 °F 70.7 °F 87% 29.99 in 10.0 mi South 9.2 mph 20.7 mph N/A   Overcast
9:55 AM 75.4 °F 70.5 °F 85% 29.99 in 10.0 mi SSW 9.2 mph - N/A Thunderstorm Thunderstorm
10:15 AM 74.8 °F 70.3 °F 86% 30.00 in 10.0 mi SSW 10.4 mph - N/A Thunderstorm Thunderstorm
10:35 AM 75.2 °F 70.7 °F 86% 29.99 in 10.0 mi South 10.4 mph - N/A   Overcast
10:55 AM 75.2 °F 70.5 °F 85% 29.99 in 10.0 mi South 10.4 mph 18.4 mph N/A   Overcast
11:15 AM 74.8 °F 70.7 °F 87% 29.99 in 10.0 mi SSE 10.4 mph - N/A   Overcast
11:35 AM 75.2 °F 70.3 °F 85% 29.97 in 10.0 mi SSE 10.4 mph - N/A Thunderstorm Thunderstorm
11:55 AM 77.0 °F 70.0 °F 79% 29.97 in 10.0 mi SSE 10.4 mph - N/A   Mostly Cloudy
12:15 PM 77.0 °F 70.2 °F 79% 29.97 in 10.0 mi SSE 10.4 mph 16.1 mph N/A   Overcast
12:35 PM 79.2 °F 70.5 °F 75% 29.96 in 10.0 mi South 12.7 mph - N/A   Overcast
12:55 PM 78.1 °F 70.3 °F 77% 29.94 in 10.0 mi SSE 15.0 mph 20.7 mph N/A   Mostly Cloudy
1:15 PM 78.8 °F 70.2 °F 75% 29.93 in 10.0 mi SSE 11.5 mph 17.3 mph N/A   Overcast
1:35 PM 77.0 °F 70.3 °F 80% 29.92 in 10.0 mi South 11.5 mph 17.3 mph N/A   Overcast
1:55 PM 74.1 °F 69.8 °F 86% 29.90 in 10.0 mi SSE 12.7 mph 18.4 mph N/A Thunderstorm Thunderstorm
2:15 PM 72.5 °F 69.8 °F 91% 29.91 in 10.0 mi SSE 13.8 mph 19.6 mph N/A   Light Drizzle
2:35 PM 72.0 °F 70.0 °F 93% 29.90 in 10.0 mi South 10.4 mph - N/A Rain Rain
2:55 PM 71.8 °F 70.0 °F 94% 29.90 in 10.0 mi South 6.9 mph - N/A   Mostly Cloudy
3:15 PM 71.6 °F 70.0 °F 95% 29.90 in 10.0 mi South 5.8 mph - N/A Thunderstorm Thunderstorm
3:35 PM 71.6 °F 70.2 °F 95% 29.85 in 7.0 mi ESE 9.2 mph - 0.01 in Rain , Thunderstorm Light Thunderstorms and Rain
3:55 PM 71.6 °F 70.3 °F 96% 29.89 in 7.0 mi South 3.5 mph - 0.01 in Rain Rain
4:15 PM 71.8 °F 70.7 °F 96% 29.90 in 10.0 mi SSW 6.9 mph - N/A Rain , Thunderstorm Light Thunderstorms and Rain
4:35 PM 69.3 °F 67.6 °F 95% 29.92 in 10.0 mi South 5.8 mph - N/A Rain Light Rain
4:55 PM 68.7 °F 67.5 °F 96% 29.90 in 7.0 mi SSE 8.1 mph - 0.02 in Rain , Thunderstorm Thunderstorms and Rain
5:15 PM 67.1 °F 65.7 °F 95% 29.91 in 10.0 mi South 8.1 mph - 0.02 in Rain Rain
5:35 PM 67.1 °F 65.8 °F 96% 29.90 in 10.0 mi South 5.8 mph - 0.03 in Rain , Thunderstorm Light Thunderstorms and Rain
5:55 PM 67.1 °F 66.2 °F 97% 29.90 in 10.0 mi SW 6.9 mph - 0.03 in   Scattered Clouds
6:15 PM 67.1 °F 65.8 °F 96% 29.91 in 10.0 mi South 9.2 mph - N/A   Clear
6:35 PM 67.1 °F 66.2 °F 97% 29.91 in 10.0 mi South 10.4 mph - N/A   Mostly Cloudy
6:55 PM 67.1 °F 66.0 °F 96% 29.91 in 10.0 mi South 6.9 mph - N/A   Mostly Cloudy
7:15 PM 67.1 °F 66.2 °F 97% 29.92 in 10.0 mi South 8.1 mph - N/A   Mostly Cloudy
7:35 PM 66.7 °F 65.7 °F 96% 29.90 in 10.0 mi South 6.9 mph - N/A   Mostly Cloudy
7:55 PM 66.2 °F 65.3 °F 97% 29.88 in 10.0 mi SSE 5.8 mph - N/A   Clear
8:15 PM 66.2 °F 65.3 °F 97% 29.88 in 10.0 mi South 4.6 mph - N/A   Clear
8:35 PM 66.2 °F 65.3 °F 97% 29.88 in 10.0 mi SSE 4.6 mph - N/A   Mostly Cloudy
8:55 PM 66.4 °F 65.7 °F 98% 29.88 in 10.0 mi South 8.1 mph - N/A   Overcast
9:15 PM 66.7 °F 65.8 °F 97% 29.89 in 10.0 mi SSW 9.2 mph - N/A   Overcast
9:35 PM 66.9 °F 65.8 °F 96% 29.90 in 10.0 mi SSW 8.1 mph - N/A   Overcast
9:55 PM 66.9 °F 65.8 °F 96% 29.89 in 10.0 mi SSW 4.6 mph - N/A   Overcast
10:15 PM 67.1 °F 65.8 °F 96% 29.89 in 10.0 mi South 3.5 mph - N/A   Overcast
10:35 PM 66.7 °F 65.8 °F 97% 29.88 in 10.0 mi South 3.5 mph - N/A   Overcast
10:55 PM 67.1 °F 66.2 °F 97% 29.89 in 10.0 mi SSW 4.6 mph - N/A Rain Light Rain
11:15 PM 67.1 °F 66.2 °F 97% 29.87 in 7.0 mi SSE 5.8 mph - 0.01 in Rain Rain
11:35 PM 66.6 °F 66.0 °F 98% 29.86 in 5.0 mi South 4.6 mph - 0.06 in Rain Rain
11:55 PM 66.6 °F 66.2 °F 99% 29.85 in 5.0 mi SSE 4.6 mph - 0.11 in Rain Rain